Time,TemperatureF,DewpointF,PressureIn,WindDirection,WindDirectionDegrees,WindSpeedMPH,WindSpeedGustMPH,Humidity,HourlyPrecipIn,Conditions,Clouds,dailyrainin,SolarRadiationWatts/m^2,SoftwareType,DateUTC
2013-12-22 00:00:00,39.3,38.0,29.76,WSW,244,0.0,-999.0,96,-99.99,,,2.13,0,weatherlink.com 1.10,2013-12-22 06:00:00,
2013-12-22 00:15:00,39.8,39.0,29.76,WSW,244,0.0,-999.0,96,-99.99,,,0.00,0,weatherlink.com 1.10,2013-12-22 06:15:00,
2013-12-22 00:30:00,39.9,39.0,29.76,WSW,244,0.0,-999.0,96,-99.99,,,0.00,0,weatherlink.com 1.10,2013-12-22 06:30:00,
2013-12-22 01:00:00,39.5,39.0,29.76,WSW,244,0.0,-999.0,96,-99.99,,,0.00,0,weatherlink.com 1.10,2013-12-22 07:00:00,
2013-12-22 01:15:00,39.7,39.0,29.77,WSW,244,0.0,-999.0,96,-99.99,,,0.00,0,weatherlink.com 1.10,2013-12-22 07:15:00,
2013-12-22 01:30:00,40.0,39.0,29.77,WSW,244,0.0,-999.0,96,-99.99,,,0.00,0,weatherlink.com 1.10,2013-12-22 07:30:00,
2013-12-22 01:45:00,40.5,40.0,29.78,WSW,244,0.0,-999.0,96,-99.99,,,0.00,0,weatherlink.com 1.10,2013-12-22 07:45:00,
2013-12-22 02:00:00,41.0,40.0,29.79,WSW,244,0.0,-999.0,96,-99.99,,,0.00,0,weatherlink.com 1.10,2013-12-22 08:00:00,
2013-12-22 02:15:00,41.1,40.0,29.80,WSW,244,0.0,-999.0,95,-99.99,,,0.00,0,weatherlink.com 1.10,2013-12-22 08:15:00,
2013-12-22 02:30:00,41.0,40.0,29.80,WSW,244,0.0,-999.0,95,-99.99,,,0.00,0,weatherlink.com 1.10,2013-12-22 08:30:00,
2013-12-22 02:45:00,40.8,40.0,29.81,WSW,244,0.0,-999.0,96,-99.99,,,0.00,0,weatherlink.com 1.10,2013-12-22 08:45:00,
2013-12-22 03:00:00,40.8,40.0,29.82,WSW,244,1.0,-999.0,95,-99.99,,,0.00,0,weatherlink.com 1.10,2013-12-22 09:00:00,
2013-12-22 03:15:00,40.7,40.0,29.83,WSW,244,0.0,-999.0,96,-99.99,,,0.00,0,weatherlink.com 1.10,2013-12-22 09:15:00,
2013-12-22 03:30:00,40.5,40.0,29.83,WSW,244,1.0,-999.0,96,-99.99,,,0.00,0,weatherlink.com 1.10,2013-12-22 09:30:00,
2013-12-22 03:45:00,40.7,40.0,29.84,WSW,244,2.0,-999.0,96,-99.99,,,0.00,0,weatherlink.com 1.10,2013-12-22 09:45:00,
2013-12-22 04:00:00,40.9,40.0,29.85,WSW,244,0.0,-999.0,96,-99.99,,,0.00,0,weatherlink.com 1.10,2013-12-22 10:00:00,
2013-12-22 04:15:00,41.0,40.0,29.84,WSW,244,0.0,-999.0,96,-99.99,,,0.00,0,weatherlink.com 1.10,2013-12-22 10:15:00,
2013-12-22 04:30:00,40.8,40.0,29.85,NW,309,9.0,-999.0,96,-99.99,,,0.00,0,weatherlink.com 1.10,2013-12-22 10:30:00,
2013-12-22 04:46:00,40.2,39.0,29.87,WNW,285,8.0,-999.0,96,-99.99,,,0.00,0,weatherlink.com 1.10,2013-12-22 10:46:00,
2013-12-22 05:01:00,38.8,38.0,29.89,WNW,302,4.0,-999.0,96,-99.99,,,0.00,0,weatherlink.com 1.10,2013-12-22 11:01:00,
2013-12-22 05:16:00,38.3,37.0,29.91,WNW,301,4.0,-999.0,96,-99.99,,,0.00,0,weatherlink.com 1.10,2013-12-22 11:16:00,
2013-12-22 05:31:00,37.8,37.0,29.92,NW,307,4.0,-999.0,96,-99.99,,,0.00,0,weatherlink.com 1.10,2013-12-22 11:31:00,
2013-12-22 05:46:00,37.6,36.0,29.92,WNW,289,7.0,-999.0,95,-99.99,,,0.00,0,weatherlink.com 1.10,2013-12-22 11:46:00,
2013-12-22 06:00:00,37.4,36.0,29.91,NW,307,8.0,-999.0,95,-99.99,,,0.00,0,weatherlink.com 1.10,2013-12-22 12:00:00,
2013-12-22 06:16:00,37.5,36.0,29.93,WNW,289,5.0,-999.0,95,-99.99,,,0.00,0,weatherlink.com 1.10,2013-12-22 12:16:00,
2013-12-22 06:31:00,36.9,36.0,29.93,WNW,298,4.0,-999.0,95,-99.99,,,0.00,0,weatherlink.com 1.10,2013-12-22 12:31:00,
2013-12-22 06:46:00,36.6,35.0,29.94,WNW,299,8.0,-999.0,95,-99.99,,,0.00,0,weatherlink.com 1.10,2013-12-22 12:46:00,
2013-12-22 07:01:00,36.6,35.0,29.95,NW,306,8.0,-999.0,95,-99.99,,,0.00,0,weatherlink.com 1.10,2013-12-22 13:01:00,
2013-12-22 07:16:00,36.2,35.0,29.97,WNW,302,8.0,-999.0,94,-99.99,,,0.00,0,weatherlink.com 1.10,2013-12-22 13:16:00,
2013-12-22 07:31:00,35.8,34.0,29.98,NW,312,13.0,-999.0,94,-99.99,,,0.00,0,weatherlink.com 1.10,2013-12-22 13:31:00,
2013-12-22 07:46:00,35.4,34.0,29.99,WNW,301,11.0,-999.0,94,-99.99,,,0.00,5,weatherlink.com 1.10,2013-12-22 13:46:00,
2013-12-22 08:02:00,35.6,34.0,30.00,WNW,301,7.0,-999.0,94,-99.99,,,0.00,7,weatherlink.com 1.10,2013-12-22 14:02:00,
2013-12-22 08:17:00,35.7,34.0,29.99,WNW,296,6.0,-999.0,93,-99.99,,,0.00,16,weatherlink.com 1.10,2013-12-22 14:17:00,
2013-12-22 08:32:00,35.7,34.0,30.01,WNW,298,0.0,-999.0,92,-99.99,,,0.00,16,weatherlink.com 1.10,2013-12-22 14:32:00,
2013-12-22 08:47:00,35.4,34.0,30.02,NW,309,12.0,-999.0,93,-99.99,,,0.00,19,weatherlink.com 1.10,2013-12-22 14:47:00,
2013-12-22 09:02:00,34.9,33.0,30.04,NW,304,6.0,-999.0,93,-99.99,,,0.00,40,weatherlink.com 1.10,2013-12-22 15:02:00,
2013-12-22 09:17:00,35.1,33.0,30.05,WNW,302,4.0,-999.0,93,-99.99,,,0.00,53,weatherlink.com 1.10,2013-12-22 15:17:00,
2013-12-22 09:32:00,35.3,33.0,30.05,WNW,298,7.0,-999.0,92,-99.99,,,0.00,114,weatherlink.com 1.10,2013-12-22 15:32:00,
2013-12-22 09:47:00,35.4,33.0,30.05,NW,321,10.0,-999.0,90,-99.99,,,0.00,77,weatherlink.com 1.10,2013-12-22 15:47:00,
2013-12-22 10:02:00,35.8,32.0,30.05,NW,308,11.0,-999.0,87,-99.99,,,0.00,40,weatherlink.com 1.10,2013-12-22 16:02:00,
2013-12-22 10:17:00,35.9,32.0,30.07,WNW,298,11.0,-999.0,86,-99.99,,,0.00,98,weatherlink.com 1.10,2013-12-22 16:17:00,
2013-12-22 10:32:00,36.1,33.0,30.07,WNW,301,2.0,-999.0,87,-99.99,,,0.00,120,weatherlink.com 1.10,2013-12-22 16:32:00,
2013-12-22 10:47:00,36.8,34.0,30.08,WNW,296,1.0,-999.0,88,-99.99,,,0.00,578,weatherlink.com 1.10,2013-12-22 16:47:00,
2013-12-22 11:02:00,37.4,34.0,30.08,WNW,297,14.0,-999.0,86,-99.99,,,0.00,88,weatherlink.com 1.10,2013-12-22 17:02:00,
2013-12-22 11:17:00,37.0,33.0,30.08,NW,310,2.0,-999.0,84,-99.99,,,0.00,109,weatherlink.com 1.10,2013-12-22 17:17:00,
2013-12-22 11:32:00,36.8,32.0,30.08,WNW,302,8.0,-999.0,84,-99.99,,,0.00,160,weatherlink.com 1.10,2013-12-22 17:32:00,
2013-12-22 11:47:00,36.6,32.0,30.08,WNW,294,7.0,-999.0,84,-99.99,,,0.00,148,weatherlink.com 1.10,2013-12-22 17:47:00,
2013-12-22 12:02:00,37.0,33.0,30.08,WNW,303,8.0,-999.0,84,-99.99,,,0.00,213,weatherlink.com 1.10,2013-12-22 18:02:00,
2013-12-22 12:17:00,37.0,32.0,30.09,WNW,301,9.0,-999.0,83,-99.99,,,0.00,60,weatherlink.com 1.10,2013-12-22 18:17:00,
2013-12-22 12:32:00,35.6,33.0,30.09,NW,315,9.0,-999.0,89,-99.99,,,0.00,62,weatherlink.com 1.10,2013-12-22 18:32:00,
2013-12-22 12:47:00,35.1,32.0,30.10,NW,306,5.0,-999.0,88,-99.99,,,0.00,98,weatherlink.com 1.10,2013-12-22 18:47:00,
2013-12-22 13:02:00,35.2,31.0,30.10,NW,311,6.0,-999.0,86,-99.99,,,0.00,179,weatherlink.com 1.10,2013-12-22 19:02:00,
2013-12-22 13:17:00,35.6,31.0,30.10,WNW,300,12.0,-999.0,84,-99.99,,,0.00,93,weatherlink.com 1.10,2013-12-22 19:17:00,
2013-12-22 13:32:00,35.3,31.0,30.11,NW,318,8.0,-999.0,83,-99.99,,,0.00,83,weatherlink.com 1.10,2013-12-22 19:32:00,
2013-12-22 13:47:00,34.7,30.0,30.11,WNW,290,5.0,-999.0,84,-99.99,,,0.00,60,weatherlink.com 1.10,2013-12-22 19:47:00,
2013-12-22 14:02:00,33.6,29.0,30.11,NW,307,9.0,-999.0,84,-99.99,,,0.00,49,weatherlink.com 1.10,2013-12-22 20:02:00,
2013-12-22 14:17:00,33.5,30.0,30.11,WNW,301,19.0,-999.0,85,-99.99,,,0.00,65,weatherlink.com 1.10,2013-12-22 20:17:00,
2013-12-22 14:32:00,33.1,29.0,30.12,WNW,295,19.0,-999.0,83,-99.99,,,0.00,54,weatherlink.com 1.10,2013-12-22 20:32:00,
2013-12-22 14:47:00,32.8,29.0,30.13,North,350,7.0,-999.0,85,-99.99,,,0.00,33,weatherlink.com 1.10,2013-12-22 20:47:00,
2013-12-22 15:03:00,32.5,29.0,30.15,WNW,294,19.0,-999.0,86,-99.99,,,0.00,21,weatherlink.com 1.10,2013-12-22 21:03:00,
2013-12-22 15:18:00,31.8,28.0,30.15,NNW,336,9.0,-999.0,84,-99.99,,,0.00,25,weatherlink.com 1.10,2013-12-22 21:18:00,
2013-12-22 15:33:00,31.6,27.0,30.16,NW,319,11.0,-999.0,84,-99.99,,,0.00,40,weatherlink.com 1.10,2013-12-22 21:33:00,
2013-12-22 15:48:00,31.7,27.0,30.18,NW,305,6.0,-999.0,84,-99.99,,,0.00,39,weatherlink.com 1.10,2013-12-22 21:48:00,
2013-12-22 16:03:00,31.9,28.0,30.19,NW,315,8.0,-999.0,84,-99.99,,,0.00,16,weatherlink.com 1.10,2013-12-22 22:03:00,
2013-12-22 16:18:00,32.0,27.0,30.20,NW,311,8.0,-999.0,83,-99.99,,,0.00,11,weatherlink.com 1.10,2013-12-22 22:18:00,
2013-12-22 16:33:00,32.1,28.0,30.20,NW,310,5.0,-999.0,83,-99.99,,,0.00,5,weatherlink.com 1.10,2013-12-22 22:33:00,
2013-12-22 16:48:00,32.2,28.0,30.21,NW,311,11.0,-999.0,83,-99.99,,,0.00,0,weatherlink.com 1.10,2013-12-22 22:48:00,
2013-12-22 17:03:00,32.1,28.0,30.21,NW,310,7.0,-999.0,84,-99.99,,,0.00,0,weatherlink.com 1.10,2013-12-22 23:03:00,
2013-12-22 17:18:00,32.1,28.0,30.22,NNW,329,13.0,-999.0,84,-99.99,,,0.00,0,weatherlink.com 1.10,2013-12-22 23:18:00,
2013-12-22 17:33:00,32.2,28.0,30.23,NW,307,12.0,-999.0,84,-99.99,,,0.00,0,weatherlink.com 1.10,2013-12-22 23:33:00,
2013-12-22 17:48:00,32.3,28.0,30.24,NW,309,8.0,-999.0,83,-99.99,,,0.00,0,weatherlink.com 1.10,2013-12-22 23:48:00,
2013-12-22 18:03:00,32.1,28.0,30.25,NW,313,7.0,-999.0,85,-99.99,,,0.00,0,weatherlink.com 1.10,2013-12-23 00:03:00,
2013-12-22 18:18:00,31.9,28.0,30.27,NW,315,12.0,-999.0,84,-99.99,,,0.00,0,weatherlink.com 1.10,2013-12-23 00:18:00,
2013-12-22 18:33:00,31.8,28.0,30.27,NW,304,9.0,-999.0,85,-99.99,,,0.00,0,weatherlink.com 1.10,2013-12-23 00:33:00,
2013-12-22 18:48:00,31.5,27.0,30.29,NW,309,13.0,-999.0,84,-99.99,,,0.00,0,weatherlink.com 1.10,2013-12-23 00:48:00,
2013-12-22 19:03:00,31.2,27.0,30.29,NW,309,8.0,-999.0,84,-99.99,,,0.00,0,weatherlink.com 1.10,2013-12-23 01:03:00,
2013-12-22 19:18:00,31.2,27.0,30.30,NW,307,12.0,-999.0,85,-99.99,,,0.00,0,weatherlink.com 1.10,2013-12-23 01:18:00,
2013-12-22 19:33:00,31.1,27.0,30.30,NW,311,11.0,-999.0,85,-99.99,,,0.00,0,weatherlink.com 1.10,2013-12-23 01:33:00,
2013-12-22 19:48:00,31.1,27.0,30.30,NW,312,8.0,-999.0,86,-99.99,,,0.00,0,weatherlink.com 1.10,2013-12-23 01:48:00,
2013-12-22 20:03:00,30.9,27.0,30.31,NW,313,12.0,-999.0,85,-99.99,,,0.00,0,weatherlink.com 1.10,2013-12-23 02:03:00,
2013-12-22 20:18:00,31.0,27.0,30.31,NW,311,9.0,-999.0,86,-99.99,,,0.00,0,weatherlink.com 1.10,2013-12-23 02:18:00,
2013-12-22 20:33:00,31.0,27.0,30.32,NW,304,7.0,-999.0,86,-99.99,,,0.00,0,weatherlink.com 1.10,2013-12-23 02:33:00,
2013-12-22 20:48:00,30.9,27.0,30.33,NW,304,11.0,-999.0,86,-99.99,,,0.00,0,weatherlink.com 1.10,2013-12-23 02:48:00,
2013-12-22 21:03:00,30.8,27.0,30.33,WNW,300,7.0,-999.0,86,-99.99,,,0.00,0,weatherlink.com 1.10,2013-12-23 03:03:00,
2013-12-22 21:18:00,30.7,27.0,30.34,NW,306,7.0,-999.0,86,-99.99,,,0.00,0,weatherlink.com 1.10,2013-12-23 03:18:00,
2013-12-22 21:33:00,30.7,27.0,30.34,NW,318,7.0,-999.0,86,-99.99,,,0.00,0,weatherlink.com 1.10,2013-12-23 03:33:00,
2013-12-22 21:49:00,30.6,27.0,30.35,NW,304,17.0,-999.0,85,-99.99,,,0.00,0,weatherlink.com 1.10,2013-12-23 03:49:00,
2013-12-22 22:04:00,30.5,27.0,30.36,NW,317,11.0,-999.0,86,-99.99,,,0.00,0,weatherlink.com 1.10,2013-12-23 04:04:00,
2013-12-22 22:19:00,30.5,27.0,30.37,WNW,301,6.0,-999.0,86,-99.99,,,0.00,0,weatherlink.com 1.10,2013-12-23 04:19:00,
2013-12-22 22:34:00,30.3,26.0,30.37,NW,311,7.0,-999.0,84,-99.99,,,0.00,0,weatherlink.com 1.10,2013-12-23 04:34:00,
2013-12-22 22:49:00,30.3,25.0,30.37,NW,307,9.0,-999.0,82,-99.99,,,0.00,0,weatherlink.com 1.10,2013-12-23 04:49:00,
2013-12-22 23:04:00,30.3,25.0,30.38,NW,321,14.0,-999.0,82,-99.99,,,0.00,0,weatherlink.com 1.10,2013-12-23 05:04:00,
2013-12-22 23:19:00,30.5,25.0,30.39,NW,306,18.0,-999.0,79,-99.99,,,0.00,0,weatherlink.com 1.10,2013-12-23 05:19:00,
2013-12-22 23:34:00,30.5,25.0,30.39,NW,314,8.0,-999.0,81,-99.99,,,0.00,0,weatherlink.com 1.10,2013-12-23 05:34:00,
2013-12-22 23:49:00,30.3,25.0,30.40,NW,326,18.0,-999.0,80,-99.99,,,0.00,0,weatherlink.com 1.10,2013-12-23 05:49:00,